Regional Weather Roundup
Issued by NWS Charleston, SC

Current Version | Previous Version | Text Only | Print | Product List | Glossary On
Versions: 1 2 3 4 5 6 7 8 9 10 11 12 13 14 15 16 17 18 19 20 21 22 23 24 25 26 27 28 29 30 31 32 33 34 35 36 37 38 39 40 41 42 43 44 45 46 47 48 49 50
000 ASUS42 KCHS 252125 RWRCHS REGIONAL WEATHER ROUNDUP NATIONAL WEATHER SERVICE CHARLESTON SC 400 PM EST THU DEC 25 2014 NOTE: "FAIR" INDICATES FEW OR NO CLOUDS BELOW 12,000 FEET WITH NO SIGNIFICANT WEATHER AND/OR OBSTRUCTIONS TO VISIBILITY. NOT ALL STATIONS ARE QUALITY CONTROLLED BY THE NATIONAL WEATHER SERVICE. USE DATA WITH CAUTION...ESPECIALLY DEWPOINT OBSERVATIONS. SCZ027-030-031-034>040-042>050-252200- ...SOUTHEAST SOUTH CAROLINA... CITY SKY/WX TMP DP RH WIND PRES REMARKS N CHARLESTON MOSUNNY 60 38 43 W7 30.14R WATERFRONT PRK N/A 61 N/A N/A NW7 N/A MOUNT PLEASANT FAIR 61 39 44 CALM 30.14S PINOPOLIS NOT AVBL MONCKS CORNER FAIR 59 43 55 NE3 30.14R SUMMERVILLE FAIR 59 41 51 W5 30.16R BEAUFORT MCAS SUNNY 60 39 45 W8 30.15S BEAUFORT ARPT FAIR 59 41 51 NW7 30.15R HILTON HEAD IS SUNNY 59 39 47 W5 30.16S WALTERBORO CLEAR 61 34 36 CALM 30.16R ALLENDALE FAIR 59 37 44 W6 30.14S ...SOUTHERN MIDLANDS AND PEE DEE... CITY SKY/WX TMP DP RH WIND PRES REMARKS GEORGETOWN NOT AVBL KINGSTREE NOT AVBL ORANGEBURG SUNNY 59 36 42 W7 30.15R BARNWELL FAIR 59 37 44 NW3 30.15F AIKEN FAIR 55 37 50 W6 30.18S MANNING FAIR 61 39 44 CALM 30.14R COLUMBIA SUNNY 59 37 44 N6 30.13R SUMTER SUNNY 59 38 46 W7 30.12R FLORENCE SUNNY 61 39 44 VRB7 30.13R MYRTLE BEACH SUNNY 61 43 51 NW12 30.13R N MYRTLE BEACH SUNNY 60 41 49 NW7 30.12R $$ GAZ063-065-086>088-099>101-113>116-118-119-134>141-150-252200- ...SOUTHEAST GEORGIA... CITY SKY/WX TMP DP RH WIND PRES REMARKS SAVANNAH ARPT MOSUNNY 60 38 43 NW8 30.16R HUNTER AAF SUNNY 60 40 46 W8 30.14R FORT STEWART SUNNY 60 38 44 W6 30.15S STATESBORO SUNNY 58 40 50 W6 30.15S SYLVANIA CLEAR 58 41 54 NW7 30.16S CLAXTON FAIR 59 41 51 NW6 30.16S ...CSRA...CENTRAL AND FAR SOUTHEAST GEORGIA... CITY SKY/WX TMP DP RH WIND PRES REMARKS THOMSON SUNNY 57 40 53 CALM 30.20F AUGUSTA-BUSH SUNNY 58 35 42 NW9 30.16R AUGUSTA-DANIEL SUNNY 58 36 43 VRB5 30.16R SWAINSBORO FAIR 59 41 51 NW6 30.17R VIDALIA SUNNY 59 39 47 W5 30.17S EASTMAN FAIR 57 39 50 NW5 30.20R HAZLEHURST FAIR 59 39 47 CALM 30.17R ALMA SUNNY 58 36 43 VRB3 30.17S WAYCROSS SUNNY 62 43 49 W5 30.17S JESUP FAIR 61 45 55 W5 30.17S BAXLEY FAIR 59 37 44 NW6 30.17R BRUNSWICK SUNNY 61 39 44 W7 30.17S SAINT SIMONS SUNNY 59 40 49 NW7 30.17S $$ SCZ027-028-034-036>038-045-046-048>050-GAZ119-141-252200- ...LAKE AND SUPPLEMENTAL COASTAL OBSERVATIONS... STATION/POSITION TIME TEMP WIND PRES WAVE SWELL AIR SEA DIR/SP/G HT/PER HT/PER/DIR (UTC) (F) (DEG/KT/KT) (MB) (FT/S) (FT/S/D) UPR LAKE MARION NOT AVBL WINYAH BAY 2100 60 280/ 5 1020.0S LAKE MURRAY 2000 56 260/ 7/ 9 1020.0R ACE BASIN NERRS 2100 58 290/ 3 1020.0S FORT PULASKI 2100 58 56 300/ 9/ 11 1021.5S SAPELO ISLAND 2100 60 300/ 7 1021.0S $$ ANZ835-935-AMZ111-154-330-350-352-354-370-450-454-472-252200- ...C-MAN AND BUOY OBSERVATIONS... STATION/POSITION TIME TEMP WIND PRES WAVE SWELL AIR SEA DIR/SP/G HT/PER HT/PER/DIR (UTC) (F) (DEG/KT/KT) (MB) (FT/S) (FT/S/D) BUOY 41004 2100 56 71 300/ 12/ 14 1020.4R 4/ 6 3/ 6 BUOY 41008 2100 54 58 270/ 8/ 10 1021.4S 1/ 3 2/110/ 9 FOLLY BEACH CMAN 2100 58 300/ 4/ 7 1021.1R CAPERS NEARSHORE 2000 55 230/ 12/ 14 N/A FRIPP NEARSHORE NOT AVBL STATION/POSITION TIME TEMP WIND PRES WAVE SWELL AIR SEA DIR/SP/G HT/PER HT/PER/DIR (UTC) (F) (DEG/KT/KT) (MB) (FT/S) (FT/S/D) 5E ST. MARYS GA 2100 60 N/A 1/10 FRYING PAN BUOY 2100 57 71 290/ 14/ 17 1020.5R 5/ 8 3/170/ 8 BUOY 41025 2100 58 1018.5R 6/ 9 CAPE LOOKOUT NC 2100 57 270/ 7/ 8 1019.1R BUOY 41002 2000 71 75 290/ 16/ 19 1019.1R 9/ 7 BUOY 41010 2100 69 76 340/ 10/ 14 1021.0S 5/ 7 5/320/ 7 ST AUGUSTINE FL 2100 57 80/ 4/ 5 1022.2R $$

USA.gov is the U.S. government's official web portal to all federal, state and local government web resources and services.